Location: Passo Abbruzzesi
(41.1500°N, 15.1500°E)
Time: 09:57:58
(UTC+00:00)

Daily predictions for brighter satellites

Satellite Brightness Start Highest point End
(mag) Time Altitude Azimuth Time Altitude Azimuth Time Altitude Azimuth
COSMOS 2455 3.4 15:52:19 10° S 15:57:54 41° ESE 16:03:32 10° NE
Cosmos 1606 4.1 15:55:39 10° SSW 15:59:12 40° WNW 16:02:47 10° N
Cosmos 1898 Rocket 3.7 15:54:27 10° N 15:59:33 49° ENE 16:04:34 10° SE
CZ-2C R/B 2.9 15:59:09 10° SSE 16:04:06 90° E 16:08:55 10° NNW
CZ-2D R/B 4.4 16:01:06 10° ESE 16:04:07 22° ENE 16:07:08 10° NNE
Cosmos 2026 Rocket 4.3 15:59:02 10° N 16:04:46 40° ENE 16:10:26 10° SE
CZ-4B R/B 4.2 16:00:43 10° ESE 16:04:48 22° ENE 16:08:51 10° NNE
Cosmos 1408 Rocket 4.0 16:00:39 10° NNW 16:05:01 68° W 16:09:21 10° S
Cosmos 1340 Rocket 2.8 16:01:28 10° N 16:05:33 83° E 16:09:37 10° S
CZ-2C R/B 3.8 16:02:17 10° NE 16:06:08 21° E 16:09:57 10° SE
Cosmos 1151 Rocket 4.3 16:06:43 10° SE 16:09:53 20° E 16:13:04 10° NE
Cosmos 2360 4.4 16:04:55 10° NNW 16:10:32 52° ENE 16:16:05 10° SE
Cosmos 1500 4.1 16:09:40 10° NNE 16:12:53 27° ENE 16:16:04 10° SE
Lacrosse 5 rocket 3.4 16:11:56 10° N 16:13:10 11° NNE 16:14:24 10° NE
Okean O Rocket 3.1 16:10:25 10° ESE 16:13:14 17° ENE 16:16:03 10° NNE
Cosmos 1743 Rocket 3.5 16:09:11 10° N 16:13:32 77° E 16:17:50 10° SSE
Meteor 1-20 Rocket 4.3 16:07:54 10° N 16:13:45 72° E 16:19:34 10° SSE
USA 267 3.7 16:14:35 10° NE 16:20:57 56° NW 16:27:18 10° WSW
H-2A R/B 2.5 16:17:09 10° SE 16:21:56 39° ENE 16:26:36 10° N
GPS 2-04 Rocket1 3.9 16:19:13 10° WSW 16:23:03 38° S 16:26:52 10° ESE
Cosmos 1666 Rocket 4.5 16:21:03 10° NNE 16:24:50 27° ENE 16:28:33 10° SE
Cosmos 1763 Rocket 4.1 16:21:15 10° SW 16:26:12 55° WNW 16:31:14 10° N
CZ-4B R/B 3.8 16:22:23 10° S 16:26:24 51° W 16:30:13 10° NNW
SJ 16-02 4.5 16:24:21 10° WNW 16:27:04 16° W 16:29:47 10° SW
Cosmos 1809 Rocket 4.4 16:21:37 10° N 16:27:42 68° E 16:33:44 10° SSE
USA 276 2.6 16:28:04 10° WNW 16:31:09 61° SW 16:34:13 10° SE
Cosmos 1933 3.5 16:27:54 10° SSW 16:31:56 75° W 16:35:59 10° N
Cosmos 841 Rocket 3.4 16:27:24 10° S 16:32:33 72° ESE 16:37:41 10° NNE
PSLV R/B 3.7 16:28:58 10° SSE 16:32:33 55° ENE 16:36:12 10° N
MOS 1-B 4.4 16:29:27 10° SE 16:35:03 55° ENE 16:40:41 10° N
USA 229 DEB 4.1 16:31:06 10° NW 16:38:34 85° SW 16:46:26 10° SSE
USA 229 4.0 16:31:12 10° NW 16:38:40 86° SW 16:46:32 10° SSE
SKYMED 2 4.1 16:35:09 10° NNE 16:39:12 37° E 16:43:14 10° SSE
Cosmos 1937 Rocket 3.5 16:34:15 10° NNW 16:39:36 81° ENE 16:44:54 10° SSE
Cosmos 1666 3.3 16:39:02 10° NNE 16:42:23 32° ENE 16:45:44 10° SE
SL-24 R/B - RUBIN 2 3.7 16:40:46 10° NNW 16:45:07 47° NE 16:49:17 10° SE
Cosmos 2322 Rocket 3.9 16:43:35 10° NNE 16:45:58 14° NE 16:45:58 14° NE
Cosmos 1697 Rocket 3.0 16:43:22 10° NNW 16:48:58 72° WSW 16:54:32 10° SSE
Cosmos 372 Rocket 3.9 16:45:36 10° NNW 16:50:49 64° ENE 16:56:01 10° SSE
Sich 1 3.0 16:47:28 10° N 16:51:47 83° W 16:56:06 10° S
USA 234 3.2 16:46:20 10° SE 16:52:53 83° NE 16:59:27 10° NW
Cosmos 1980 Rocket 2.1 16:47:43 10° NNW 16:53:21 64° ENE 16:58:55 10° SE
Cosmos 1805 Rocket 4.1 16:49:29 10° NNW 16:53:45 60° W 16:58:01 10° S
Meteor 1-14 Rocket 4.3 16:48:48 10° N 16:54:35 60° ENE 17:00:27 10° SSE
Cosmos 2369 3.7 16:49:30 10° NNW 16:55:17 85° ENE 17:01:00 10° SSE
SL-08 RB Rocket 4.4 16:51:32 10° SE 16:55:36 31° ENE 16:59:39 10° N
Cosmos 1812 2.6 16:55:06 10° S 16:58:56 83° E 17:02:42 11° N
Meteor 1-5 Rocket 4.3 16:53:39 10° N 16:59:34 59° ENE 17:05:21 10° SSE
CZ-4C R/B 3.1 16:52:56 10° NNW 17:00:05 54° NE 17:08:21 10° SE
deb Chang Zheng 4 3.5 16:58:32 10° SSE 17:02:46 61° ENE 17:07:02 10° N
SL-16 R/B 3.3 17:00:08 10° N 17:04:15 24° NE 17:04:15 24° NE
ISS -3.2 17:01:44 10° NW 17:04:57 39° NNE 17:04:58 39° NNE
Cosmos 2082 Rocket 2.4 16:59:35 10° SSW 17:05:16 73° WNW 17:10:42 11° NNE
MOS 1-B Rocket 4.1 17:00:18 10° NNE 17:06:18 86° WNW 17:13:11 10° SSW
NOSS 2-2 (D) 4.4 17:02:00 10° NNW 17:07:31 80° NE 17:15:17 10° SE
Cosmos 1515 Rocket 4.2 17:05:11 10° SSE 17:08:52 34° E 17:08:52 34° E
Cosmos 44 Rocket 4.0 17:10:13 10° NNW 17:14:24 33° NE 17:14:24 33° NE
Meteor 2-16 Rocket 4.4 17:10:25 10° N 17:16:34 87° E 17:22:42 10° S
YAOGAN 3 4.4 17:13:18 10° SSE 17:17:38 76° ENE 17:22:00 10° N
Cosmos 2278 3.6 17:13:38 10° NNW 17:19:21 75° ENE 17:25:02 10° SSE
ARGOS 3.0 17:17:20 10° SSE 17:22:44 84° ENE 17:28:10 10° NNW
Cosmos 1900 4.2 17:18:54 10° SSW 17:23:45 86° ESE 17:25:34 39° NNE
Cosmos 2279 Rocket 4.2 17:18:14 10° SSW 17:24:26 73° W 17:30:40 10° N
Cosmos 1570 Rocket 4.1 17:19:33 10° SSW 17:24:47 74° WNW 17:28:35 19° NNE
Meteor 1-27 Rocket 4.3 17:20:01 10° SSE 17:24:11 35° ESE 17:24:11 35° ESE
COSMO-SKYMED 1 3.0 17:23:24 12° N 17:27:18 62° WNW 17:31:35 10° SSW
Cosmos 2298 Rocket 4.3 17:24:09 10° N 17:28:50 44° NE 17:28:50 44° NE
DMSP B5D2-2 4.2 17:29:23 48° E 17:29:42 49° E 17:34:44 10° S
Cosmos 2266 Rocket 4.0 17:25:40 10° N 17:32:01 61° E 17:38:19 10° SSE
Cosmos 921 Rocket 2.7 17:28:33 10° S 17:32:43 75° ESE 17:32:43 75° ESE
Meteor 2-15 Rocket 4.3 17:27:34 10° S 17:33:36 64° E 17:37:33 23° NNE
ATLAS 5 CENTAUR R/B 3.5 17:29:49 10° NNW 17:33:07 23° N 17:33:07 23° N
CZ-2C R/B 2.9 17:32:18 10° SW 17:35:26 23° S 17:35:26 23° S
Cosmos 1633 Rocket 3.5 17:32:38 10° NNW 17:36:56 59° W 17:41:15 10° S
GEOS 3 Rocket 4.0 17:37:58 43° NNE 17:37:58 43° NNE 17:42:23 10° NNW
Cosmos 1818 3.6 17:33:27 10° NNW 17:38:50 56° NE 17:38:50 56° NE
Meteor 2-6 Rocket 4.4 17:33:41 10° SSW 17:39:27 71° W 17:45:06 10° N
APEX 4.3 17:39:28 10° SSW 17:42:09 36° S 17:42:09 36° S
COSMOS 2455 4.2 17:38:28 10° WSW 17:43:54 35° NW 17:48:14 15° N
CZ-4B R/B 4.0 17:39:45 10° S 17:45:00 50° W 17:50:13 10° NNW
CZ-2C R/B 3.5 17:41:42 10° N 17:46:39 46° WNW 17:51:33 10° SW
Spot 2 4.3 17:42:34 10° SSE 17:47:40 76° ENE 17:52:48 10° N
Okean O Rocket 2.5 17:44:52 10° S 17:49:10 49° W 17:53:30 10° NNW
X-37B 3.7 17:50:12 10° SW 17:50:13 10° SW 17:50:13 10° SW
Lacrosse 5 rocket 3.4 17:49:24 10° NNW 17:50:36 18° NNW 17:50:36 18° NNW
Cosmos 1867 4.5 17:54:30 10° S 17:57:54 36° S 17:57:54 36° S
H-2A R/B 4.2 17:57:13 10° SSW 18:01:25 25° W 18:05:35 10° NW
Meteor 1-11 Rocket 3.6 17:59:29 10° N 18:05:08 88° W 18:10:54 10° S
Cosmos 1470 Rocket 4.4 18:01:41 10° NNW 18:05:59 50° W 18:10:19 10° SSW
Cosmos 1655 Rocket 4.3 18:01:56 10° NNW 18:08:16 68° W 18:14:33 10° S
Cosmos 2360 Rocket 4.3 18:06:22 10° N 18:07:10 14° N 18:07:10 14° N
USA 32 4.4 18:07:26 10° S 18:11:49 59° SW 18:11:49 59° SW
Cosmos 2322 Rocket 3.9 18:25:47 10° NNW 18:27:49 23° NNW 18:27:49 23° NNW
CZ-4C R/B 4.1 18:41:40 10° NW 18:48:44 41° WSW 18:56:35 10° S
SL-16 R/B 3.9 18:43:35 10° NNW 18:46:11 27° NW 18:46:11 27° NW
